Rutland, VT

12:46 PM EDT on April 28, 2017 (GMT -0400)
Rutland State

Weather History for KRUT - March, 2014

Change the Weather History Date:

Thursday, March 13, 2014

  Actual Average Record
Temperature  
Mean Temperature 7 °F -  
Max Temperature 14 °F - 79 °F (1984)
Min Temperature 0 °F - -3 °F (1989)
Degree Days  
Heating Degree Days 58    
Month to date heating degree days 603  
Since 1 July heating degree days 6263  
Cooling Degree Days 0    
Month to date cooling degree days 0  
Year to date cooling degree days 0  
Moisture  
Dew Point 1 °F    
Average Humidity 68    
Maximum Humidity 88    
Minimum Humidity 48    
Precipitation  
Precipitation 0.01 in - 0.90 in (1977)
Month to date precipitation 0.56  
Year to date precipitation 3.91  
Sea Level Pressure  
Sea Level Pressure 29.56 in    
Wind  
Wind Speed 12 mph (NNW)    
Max Wind Speed 18 mph    
Max Gust Speed 38 mph    
Visibility 5 miles    
Events      
T = Trace of Precipitation, MM = Missing Value Source: NWS Daily Summary

Daily Weather History Graph

Daily Weather History Graph

Search for Another Location

Airport or City:

Trip Planner

Search our weather history database for the weather conditions in past years. The results will help you decide how hot, cold, wet, or windy it might be!

Date:

Astronomy

Mar. 13, 2014 Rise Set
Actual Time 7:07 AM EDT 6:55 PM EDT
Civil Twilight 6:39 AM EDT 7:24 PM EDT
Nautical Twilight 6:05 AM EDT 7:57 PM EDT
Astronomical Twilight 5:32 AM EDT 8:31 PM EDT
Moon 4:15 PM EDT (3/13) 5:17 AM EDT (3/13)
Length of Visible Light 12h 45m
Length of Day
11h 48m
Waxing Gibbous, 91% of the Moon is Illuminated
Mar 13
Waxing Gibbous
Mar 16
Full
Mar 23
Last Quarter
Mar 30
New
Apr 7
First Quarter

Hourly Weather History & Observations

Time (EDT) Temp. Windchill Dew Point Humidity Pressure Visibility Wind Dir Wind Speed Gust Speed Precip Events Conditions
12:15 AM 12.2 °F -1.8 °F 10.4 °F 92% 29.27 in 1.0 mi NNW 11.5 mph 24.2 mph N/A   Overcast
12:35 AM 12.2 °F -2.5 °F 10.4 °F 92% 29.27 in 1.2 mi NNW 12.7 mph 28.8 mph N/A   Overcast
12:55 AM 12.2 °F -3.7 °F 8.6 °F 85% 29.26 in 1.2 mi NNW 15.0 mph 27.6 mph N/A   Overcast
1:15 AM 10.4 °F -7.2 °F 8.6 °F 92% 29.26 in 1.0 mi NNW 17.3 mph 26.5 mph N/A   Overcast
1:35 AM 10.4 °F -6.6 °F 6.8 °F 85% 29.28 in 1.5 mi NNW 16.1 mph 26.5 mph N/A   Overcast
1:55 AM 10.4 °F -6.0 °F 6.8 °F 85% 29.30 in 2.0 mi NNW 15.0 mph 24.2 mph N/A   Overcast
2:15 AM 10.4 °F -6.6 °F 6.8 °F 85% 29.30 in 2.5 mi NNW 16.1 mph 27.6 mph N/A   Overcast
2:35 AM 8.6 °F -7.7 °F 5.0 °F 85% 29.32 in 3.0 mi NNW 13.8 mph 24.2 mph N/A   Overcast
2:55 AM 8.6 °F -8.9 °F 5.0 °F 85% 29.32 in 2.5 mi NNW 16.1 mph 29.9 mph N/A   Overcast
3:15 AM 8.6 °F -10.0 °F 3.2 °F 79% 29.30 in 2.5 mi NNW 18.4 mph 29.9 mph N/A   Overcast
3:35 AM 8.6 °F -8.9 °F 5.0 °F 85% 29.31 in 2.0 mi NNW 16.1 mph 26.5 mph N/A   Overcast
3:55 AM 8.6 °F -10.0 °F 5.0 °F 85% 29.32 in 2.0 mi NNW 18.4 mph 38.0 mph N/A   Overcast
4:15 AM 8.6 °F -10.0 °F 3.2 °F 79% 29.33 in 2.5 mi NW 18.4 mph 27.6 mph N/A   Overcast
4:35 AM 8.6 °F -8.3 °F 3.2 °F 79% 29.33 in 2.0 mi NW 15.0 mph 26.5 mph N/A   Overcast
4:55 AM 6.8 °F -11.3 °F 3.2 °F 85% 29.33 in 1.8 mi NNW 16.1 mph 27.6 mph N/A   Overcast
5:15 AM 6.8 °F -11.8 °F 3.2 °F 85% 29.34 in 2.0 mi NNW 17.3 mph 23.0 mph N/A   Overcast
5:35 AM 6.8 °F -10.7 °F 3.2 °F 85% 29.35 in 1.8 mi NNW 15.0 mph 23.0 mph N/A   Overcast
5:55 AM 6.8 °F -11.8 °F 3.2 °F 85% 29.36 in 1.8 mi NNW 17.3 mph 26.5 mph 0.01 in   Overcast
6:15 AM 6.8 °F -11.3 °F 3.2 °F 85% 29.38 in 2.0 mi NNW 16.1 mph 26.5 mph N/A   Overcast
6:35 AM 6.8 °F -10.7 °F 3.2 °F 85% 29.39 in 1.2 mi NNW 15.0 mph 27.6 mph N/A   Overcast
6:55 AM 6.8 °F -11.3 °F 1.4 °F 79% 29.40 in 1.2 mi NW 16.1 mph 27.6 mph N/A   Overcast
7:15 AM 6.8 °F -11.3 °F 1.4 °F 79% 29.41 in 1.0 mi NNW 16.1 mph 23.0 mph N/A   Overcast
7:35 AM 6.8 °F -11.3 °F 1.4 °F 79% 29.43 in 1.0 mi NNW 16.1 mph 24.2 mph N/A   Overcast
7:55 AM 6.8 °F -12.4 °F 1.4 °F 79% 29.44 in 1.0 mi NNW 18.4 mph 26.5 mph N/A   Overcast
8:15 AM 6.8 °F -14.3 °F -0.4 °F 72% 29.45 in 1.0 mi NNW 23.0 mph 34.5 mph N/A   Overcast
8:35 AM 6.8 °F -10.7 °F 3.2 °F 85% 29.45 in 1.2 mi NNW 15.0 mph 25.3 mph N/A   Overcast
8:55 AM 6.8 °F -10.0 °F 1.4 °F 79% 29.47 in 1.0 mi NNW 13.8 mph 23.0 mph N/A   Overcast
9:15 AM 6.8 °F -8.6 °F 3.2 °F 85% 29.48 in 0.8 mi NNW 11.5 mph 26.5 mph N/A   Overcast
9:35 AM 6.8 °F -10.0 °F 3.2 °F 85% 29.49 in 0.5 mi NNW 13.8 mph 28.8 mph N/A   Overcast
9:55 AM 6.8 °F -9.3 °F 1.4 °F 79% 29.49 in 1.2 mi NNW 12.7 mph 21.9 mph N/A   Overcast
10:15 AM 6.8 °F -8.6 °F -0.4 °F 72% 29.51 in 2.0 mi NNW 11.5 mph 20.7 mph N/A   Overcast
10:35 AM 6.8 °F -11.3 °F -0.4 °F 72% 29.52 in 2.5 mi NW 16.1 mph 24.2 mph N/A   Overcast
10:55 AM 6.8 °F -9.3 °F -0.4 °F 72% 29.53 in 3.0 mi NNW 12.7 mph 25.3 mph N/A   Mostly Cloudy
11:15 AM 6.8 °F -10.0 °F 1.4 °F 79% 29.54 in 2.0 mi NNW 13.8 mph 28.8 mph N/A   Overcast
11:35 AM 8.6 °F -11.4 °F 1.4 °F 73% 29.54 in 1.5 mi NNW 21.9 mph 28.8 mph N/A   Overcast
11:55 AM 8.6 °F -7.0 °F 1.4 °F 73% 29.55 in 3.0 mi NNW 12.7 mph 25.3 mph N/A   Overcast
12:15 PM 8.6 °F -8.9 °F -0.4 °F 67% 29.56 in 3.0 mi North 16.1 mph 25.3 mph N/A   Overcast
12:35 PM 8.6 °F -8.3 °F -0.4 °F 67% 29.56 in 2.0 mi NNW 15.0 mph 33.4 mph N/A   Overcast
12:55 PM 8.6 °F -8.3 °F 1.4 °F 73% 29.57 in 3.0 mi NW 15.0 mph 23.0 mph N/A   Overcast
1:15 PM 10.4 °F -3.3 °F 1.4 °F 67% 29.58 in 3.0 mi NNW 10.4 mph 16.1 mph N/A   Overcast
1:35 PM 10.4 °F -5.4 °F 1.4 °F 67% 29.58 in 7.0 mi NNW 13.8 mph 20.7 mph N/A   Overcast
1:55 PM 10.4 °F -4.8 °F 3.2 °F 73% 29.58 in 9.0 mi North 12.7 mph 20.7 mph N/A   Overcast
2:15 PM 12.2 °F -4.8 °F 3.2 °F 67% 29.59 in 9.0 mi NNW 17.3 mph 20.7 mph N/A   Overcast
2:35 PM 12.2 °F -1.8 °F 3.2 °F 67% 29.59 in 5.0 mi NNW 11.5 mph 20.7 mph N/A   Overcast
2:55 PM 12.2 °F -2.5 °F 5.0 °F 73% 29.60 in 7.0 mi NNW 12.7 mph 17.3 mph N/A   Overcast
3:15 PM 12.2 °F -3.7 °F 3.2 °F 67% 29.60 in 10.0 mi North 15.0 mph 20.7 mph N/A   Overcast
3:35 PM 12.2 °F -2.5 °F 3.2 °F 67% 29.62 in 10.0 mi North 12.7 mph 19.6 mph N/A   Overcast
3:55 PM 12.2 °F -2.5 °F 3.2 °F 67% 29.63 in 10.0 mi North 12.7 mph 17.3 mph N/A   Mostly Cloudy
4:15 PM 14.0 °F -1.4 °F 3.2 °F 62% 29.64 in 10.0 mi NNW 15.0 mph 23.0 mph N/A   Mostly Cloudy
4:35 PM 14.0 °F 0.5 °F 1.4 °F 57% 29.65 in 10.0 mi NNW 11.5 mph 20.7 mph N/A   Scattered Clouds
4:55 PM 14.0 °F 1.2 °F 1.4 °F 57% 29.66 in 10.0 mi North 10.4 mph 24.2 mph N/A   Partly Cloudy
5:15 PM 14.0 °F -0.2 °F -0.4 °F 53% 29.68 in 10.0 mi NNW 12.7 mph 19.6 mph N/A   Partly Cloudy
5:35 PM 14.0 °F 1.2 °F -2.2 °F 49% 29.69 in 10.0 mi NNW 10.4 mph 18.4 mph N/A   Clear
5:55 PM 14.0 °F -0.8 °F -0.4 °F 53% 29.70 in 10.0 mi NNW 13.8 mph 19.6 mph N/A   Clear
6:15 PM 14.0 °F 0.5 °F -2.2 °F 49% 29.72 in 10.0 mi NW 11.5 mph 18.4 mph N/A   Mostly Cloudy
6:35 PM 14.0 °F 2.9 °F -4.0 °F 45% 29.74 in 10.0 mi NW 8.1 mph 18.4 mph N/A   Scattered Clouds
6:55 PM 12.2 °F 0.7 °F -4.0 °F 48% 29.75 in 10.0 mi NW 8.1 mph - N/A   Clear
7:15 PM 12.2 °F 4.3 °F -2.2 °F 53% 29.77 in 10.0 mi WNW 4.6 mph - N/A   Clear
7:35 PM 12.2 °F -0.2 °F -5.8 °F 45% 29.79 in 10.0 mi WNW 9.2 mph - N/A   Clear
7:55 PM 12.2 °F 1.7 °F -2.2 °F 53% 29.81 in 10.0 mi WNW 6.9 mph - N/A   Clear
8:15 PM 12.2 °F -1.8 °F -5.8 °F 45% 29.83 in 10.0 mi WNW 11.5 mph 19.6 mph N/A   Clear
8:35 PM 10.4 °F -3.3 °F -7.6 °F 44% 29.84 in 10.0 mi WNW 10.4 mph 17.3 mph N/A   Clear
8:55 PM 10.4 °F -2.4 °F -5.8 °F 48% 29.86 in 10.0 mi WNW 9.2 mph 17.3 mph N/A   Clear
9:15 PM 10.4 °F 0.8 °F -7.6 °F 44% 29.87 in 10.0 mi NW 5.8 mph - N/A   Clear
9:35 PM 8.6 °F 0.1 °F -5.8 °F 52% 29.88 in 10.0 mi NW 4.6 mph - N/A   Clear
9:55 PM 8.6 °F 0.1 °F -5.8 °F 52% 29.89 in 10.0 mi NW 4.6 mph - N/A   Clear
10:15 PM 6.8 °F -2.0 °F -7.6 °F 52% 29.90 in 10.0 mi NNE 4.6 mph - N/A   Clear
10:35 PM 6.8 °F -0.1 °F -2.2 °F 67% 29.91 in 10.0 mi North 3.5 mph - N/A   Clear
10:55 PM 6.8 °F - -2.2 °F 67% 29.92 in 10.0 mi Calm Calm - N/A   Clear
11:15 PM 3.2 °F - -7.6 °F 61% 29.93 in 10.0 mi Calm Calm - N/A   Clear
11:35 PM 1.4 °F -8.3 °F -4.0 °F 78% 29.93 in 10.0 mi South 4.6 mph - N/A   Clear
11:55 PM 1.4 °F - -2.2 °F 85% 29.94 in 10.0 mi Calm Calm - N/A   Clear